#timestamp,LO_Frequency,Hit,StdDev 
1526396415.2,286047000.8,N
1526396435.9,286047000.1,N
1526396455.7,286047002.1,N
1526396475.6,286046999.7,N
1526396495.4,286046999.9,N
1526396515.2,286047002.2,N
1526396535.1,286047000.1,N
1526396536.0,286047000.1,N
1526396555.8,286047002.4,N
1526396575.7,286047001.2,N
1526396595.5,286047000.8,N
1526396615.3,286046998.6,N
1526396635.2,286047000.7,N
1526396655.0,286046998.5,N
1526396655.9,286046998.5,N
1526396675.8,286047000.5,N
1526396695.6,286047002.4,N
1526396715.4,286046999.7,N
1526396735.3,286047000.2,N
1526396755.1,286047000.3,N
1526396775.9,286047000.5,N
1526396795.7,286046998.5,N
1526396815.5,286046999.9,N
1526396835.4,286047000.3,N
1526396855.2,286047000.4,N
1526396875.0,286047002.2,N
1526396875.9,286047002.2,N
1526396895.8,286047000.2,N
1526396915.6,286047000.3,N
1526396935.5,286047002.8,N
1526396955.3,286047000.8,N
1526396975.1,286047000.6,N
1526396995.9,286046998.8,N
1526397015.7,286046998.8,N
1526397035.5,286047001.0,N
1526397055.4,286047000.1,N
1526397075.2,286047001.9,N
1526397095.1,286047002.6,N
1526397096.0,286047002.6,N
1526397115.8,286047001.3,N
1526397135.6,286047002.3,N
1526397155.5,286047001.6,N
1526397175.3,286047004.0,Y
1526397225.2,286047007.2,E
1526397235.1,286047003.8,N
1526397255.8,286046998.1,P
1526397275.7,286046998.7,N
1526397295.5,286046996.5,N
1526397315.4,286047000.6,N
1526397335.2,286047001.1,N
1526397355.0,286047000.4,N
1526397355.9,286047000.4,N
1526397375.8,286047000.6,N
1526397395.6,286047000.4,N
1526397415.4,286047000.5,N
1526397435.3,286046998.8,N
1526397455.1,286047000.1,N
1526397475.9,286046998.4,N
1526397495.7,286047001.1,N
1526397515.5,286046999.3,N
1526397535.4,286047000.6,N
1526397555.2,286047002.4,N
1526397575.1,286047002.6,N
1526397576.0,286047002.6,N
1526397595.8,286046999.8,N
1526397615.6,286047000.3,N
1526397635.5,286047000.1,N
1526397655.3,286046999.9,N
1526397675.2,286046998.7,N
1526397695.9,286046998.9,N
1526397715.7,286047002.2,N
1526397735.6,286047002.6,N
1526397755.4,286047000.0,N
1526397775.2,286047001.1,N
1526397795.1,286047001.0,N
1526397796.0,286047001.0,N
1526397815.8,286046999.3,N
1526397835.7,286046999.3,N
1526397855.5,286046998.5,N
1526397875.3,286046999.3,N
1526397895.2,286046997.2,N
1526397915.0,286046996.0,Y
1526397915.9,286046996.0,P
1526397935.8,286046994.1,N
1526397955.6,286046994.0,N
1526397975.4,286046995.8,N
1526397995.3,286046997.8,N
1526398015.1,286046997.8,N
1526398035.8,286046994.9,N
1526398055.7,286046995.5,N
1526398075.5,286046996.4,N
1526398095.4,286046999.6,N
1526398115.2,286046997.6,N
1526398135.0,286046997.9,N
1526398135.9,286046997.9,N
1526398155.8,286046996.3,N
1526398175.6,286046993.5,Y
1526398195.4,286047000.1,P
1526398215.3,286047000.1,N
1526398235.1,286047000.9,N
1526398255.9,286046998.4,N
1526398275.7,286046996.7,N
1526398295.5,286046997.2,N
1526398315.4,286046996.9,N
1526398335.2,286046997.5,N
1526398355.0,286046997.9,N
1526398355.9,286046997.9,N
1526398375.8,286046996.5,N
1526398395.6,286046999.1,N
1526398415.5,286046997.4,N
1526398435.3,286046997.5,N
1526398455.1,286046999.4,N
1526398475.9,286046999.4,N
1526398495.7,286046997.0,N
1526398515.6,286046996.6,N
1526398535.4,286046997.2,N
1526398555.2,286046997.5,N
1526398575.1,286046997.5,N
1526398576.0,286046997.5,N
1526398595.8,286046997.9,N
1526398615.7,286046995.0,Y
1526398635.5,286047001.0,P
1526398655.3,286047001.5,N
1526398675.2,286047000.0,N
1526398695.9,286047001.1,N
1526398715.7,286046998.7,N
1526398735.6,286046997.4,N
1526398755.4,286046997.1,N
1526398775.3,286046997.8,N
1526398795.1,286046997.3,N
1526398796.0,286046997.3,N
1526398815.8,286046998.9,N
1526398835.7,286046999.3,N
1526398855.5,286046998.8,N
1526398875.3,286047001.1,N
1526398895.2,286046998.3,N
1526398915.0,286046996.9,N
1526398915.9,286046996.9,N
1526398935.8,286046996.7,N
1526398955.6,286046997.2,N
1526398975.4,286046995.0,Y
1526398995.3,286046998.9,P
1526399015.1,286046999.4,P
1526399035.8,286046999.2,N
1526399055.7,286047000.9,N
1526399075.5,286047000.9,N
1526399095.4,286047001.2,N
1526399115.2,286046998.6,N
1526399135.0,286047000.7,N
1526399135.9,286047000.7,N
1526399155.8,286047000.9,N
1526399175.6,286046998.4,N
1526399195.5,286046997.0,N
1526399215.3,286046999.2,N
1526399235.1,286046996.7,N
1526399255.9,286046996.7,N
1526399275.7,286046998.8,N
1526399295.6,286046998.3,N
1526399315.4,286046998.4,N
1526399335.2,286046998.2,N
1526399355.1,286046997.0,N
1526399356.0,286046997.0,N
1526399375.8,286046999.2,N
1526399395.6,286046998.2,N
1526399415.5,286046997.6,N
1526399435.3,286046997.1,N
1526399455.2,286046998.7,N
1526399475.9,286046999.5,N
1526399495.7,286046999.2,N
1526399515.6,286046997.0,N
1526399535.4,286046993.3,Y
1526399555.3,286046995.5,P
1526399575.1,286046995.8,N
1526399576.0,286046995.8,N
1526399595.8,286046993.6,Y
1526399615.7,286046999.2,P
1526399635.5,286046999.6,N
1526399655.3,286046998.0,N
1526399675.2,286046995.4,Y
1526399695.0,286046999.5,P
1526399695.9,286046999.5,N
1526399715.8,286046997.4,P
1526399735.6,286046997.4,N
1526399755.4,286046996.7,Y
1526399775.3,286047001.1,P
1526399795.1,286047000.1,N
1526399815.9,286046998.1,N
1526399835.7,286046999.4,N
1526399855.5,286046998.8,N
1526399875.4,286046999.3,N
1526399895.2,286046999.3,N
1526399915.0,286047001.0,N
1526399916.0,286047001.0,N
1526399935.8,286046998.4,N
1526399955.6,286046998.2,N
1526399975.5,286047000.4,N
1526399995.3,286046998.9,N
